Location: St. Louis
(38.6270°N, 90.1994°W)
Time: 23:29:03
(UTC-06:00)

Vanguard 1 - Pass Details

Date: 30 November 2021
Orbit: 652 x 3830 km, 34.2° (Epoch: 21 January)

Event Time Altitude Azimuth Distance (km) Brightness Sun altitude
Rises 21:43:15 0° 200° (SSW) 6,740 14.3 -58.2°
Reaches altitude 10° 21:48:10 10° 191° (S) 6,108 14.0 -59.0°
Enters shadow 21:48:25 11° 190° (S) 6,079 13.9 -59.1°
Maximum altitude 22:05:13 32° 136° (SE) 5,204 - -62.0°
Drops below altitude 10° 22:23:36 10° 83° (E) 6,675 - -65.0°
Sets 22:29:10 0° 75° (ENE) 7,430 - -65.9°
